Theta_e
283 284 284 285 284 283 283 283 283 282 283 282 281 282 285 285 281 281 283 284 283 288 291 292 292 292 291 292 294 293 293 293 292 293 293 293 293 294 294 295 296 296 294 294 294 295 295 294 294 294 295 295 295 295 294 294 294 294 294 293 293 293 292 292 293 293 294 294 295 295 294 295 294 294 294 294 294 294 293 294 295 295 295 295 295 295 295
281 282 283 283 283 283 283 283 283 283 283 283 283 284 284 284 284 286 287 286 286 290 291 292 292 293 292 293 293 292 292 292 292 293 293 293 293 294 294 295 295 295 294 294 293 293 294 294 294 294 294 294 294 294 294 294 294 294 293 292 292 292 292 292 293 293 294 293 294 293 293 293 293 293 293 293 293 292 293 293 293 294 294 294 294 294 294
279 282 281 281 282 282 280 281 282 283 284 284 284 283 284 283 283 285 286 285 285 291 293 292 293 293 292 291 291 292 291 293 293 293 293 293 293 293 294 294 294 294 293 293 293 292 292 292 292 293 293 294 294 293 293 294 294 293 292 292 292 291 292 292 292 292 292 293 293 292 293 292 292 292 293 292 292 291 292 292 292 292 292 292 292 292 292
277 278 281 281 281 280 279 280 281 282 282 279 282 283 284 282 282 283 282 281 283 289 291 290 291 291 291 290 291 291 292 295 294 293 293 292 292 292 293 293 293 293 292 292 292 291 291 292 292 292 292 293 292 293 293 293 293 292 291 291 292 292 292 292 292 292 292 292 292 292 292 292 292 292 291 291 291 291 291 291 292 291 290 291 291 291 292
276 277 279 280 278 276 278 280 282 283 283 284 283 285 284 286 286 281 280 281 288 289 290 289 290 291 290 290 291 292 292 292 292 292 292 292 292 293 294 293 292 292 292 291 291 291 291 292 292 292 292 291 292 292 292 292 291 291 291 291 291 291 291 291 292 292 292 292 292 292 292 292 292 291 291 291 291 291 291 291 290 290 291 291 291 291 291
277 276 276 278 276 274 277 287 288 287 283 283 282 282 284 286 287 285 287 288 289 289 289 289 289 290 291 291 292 292 292 292 291 291 292 292 293 294 292 291 291 292 292 292 292 292 291 291 291 291 291 291 291 291 291 290 290 291 291 291 291 291 291 291 291 291 291 291 291 291 291 291 291 291 291 290 291 291 290 290 290 290 290 290 290 290 290
277 277 277 278 273 276 284 283 285 287 288 287 285 286 286 287 288 289 288 288 289 290 291 290 291 291 293 292 291 292 293 291 291 291 292 292 294 292 291 291 291 292 292 291 291 290 290 291 290 290 290 290 290 290 290 290 290 290 290 290 290 290 291 291 291 291 291 291 291 291 291 290 290 290 290 290 290 291 290 290 290 290 290 290 290 290 290
279 276 277 271 273 282 286 287 286 286 283 282 284 282 286 288 289 289 288 289 290 291 291 292 291 291 290 290 290 292 293 292 292 292 293 293 292 292 292 292 292 291 291 291 290 290 291 290 289 289 290 290 289 289 289 289 289 289 289 289 290 290 290 290 290 291 290 290 290 290 290 290 289 289 290 290 289 290 289 290 290 290 290 289 289 290 290
273 276 275 278 281 284 285 284 282 282 281 280 281 278 280 287 289 289 289 289 290 290 291 291 291 290 288 287 290 293 293 295 295 294 294 293 293 293 292 292 291 292 291 291 291 290 289 290 289 290 290 290 289 289 288 289 289 289 289 289 289 289 289 289 290 290 290 289 289 289 289 289 288 289 289 289 289 289 288 289 289 289 289 289 290 290 289
280 276 274 274 275 271 278 284 285 288 288 288 287 282 280 288 290 290 289 289 290 290 290 290 289 286 286 285 286 292 296 296 294 293 293 292 292 292 291 291 290 289 290 290 290 290 288 288 289 289 289 289 288 287 288 289 288 289 288 288 288 288 288 288 289 289 289 289 288 288 288 288 288 289 289 289 289 289 288 288 288 289 289 289 289 289 288
276 276 272 271 270 274 282 285 286 287 285 287 285 283 281 288 289 291 290 290 289 289 290 290 286 286 281 284 288 292 292 291 291 291 291 291 291 291 290 290 289 289 289 289 288 288 288 288 289 289 289 288 287 288 288 288 288 287 286 286 287 287 287 287 288 288 288 288 288 288 287 288 288 288 288 288 288 289 288 288 288 289 288 288 288 289 289
276 274 274 274 276 276 283 284 285 285 284 285 284 277 276 287 292 293 290 291 290 290 291 287 286 286 284 284 289 293 292 291 292 289 290 290 289 289 289 289 289 288 288 288 288 288 288 288 289 289 288 287 287 287 287 287 285 285 285 285 286 286 286 286 286 286 287 287 287 287 287 288 288 288 288 288 288 288 288 288 288 288 288 288 288 288 288
277 280 276 276 277 284 288 286 285 283 285 284 277 275 281 287 290 292 292 292 293 293 292 286 287 287 290 291 295 293 290 289 289 290 289 289 289 288 287 287 288 288 288 288 288 288 288 289 289 288 288 287 287 286 285 283 282 283 282 283 283 283 283 283 284 285 286 286 286 287 288 287 287 287 287 287 287 287 287 287 287 287 287 287 287 287 288
276 277 275 276 278 283 289 287 287 285 284 278 276 285 289 291 291 292 293 293 293 294 294 291 291 293 293 291 290 290 290 289 288 288 288 288 288 288 287 287 287 287 288 287 287 287 288 288 288 288 287 284 283 282 281 279 280 281 281 281 281 281 281 282 283 284 284 286 286 287 287 286 286 286 286 286 286 286 286 286 286 285 286 286 286 286 287
275 275 274 273 272 281 289 286 284 285 282 282 288 286 288 291 292 291 291 292 291 293 290 290 290 289 289 289 288 288 288 287 287 287 287 287 286 285 285 285 286 286 286 285 285 286 287 287 288 288 284 281 280 280 279 278 279 280 279 279 279 279 280 281 282 283 283 284 285 286 286 285 285 284 283 283 283 284 284 283 283 283 284 284 284 285 285
274 274 272 275 282 284 289 289 283 283 288 290 290 290 290 290 290 289 289 289 289 290 290 288 287 287 286 287 287 287 287 287 287 287 287 286 286 284 283 283 284 284 284 284 284 285 287 288 288 286 281 280 279 278 278 279 279 279 278 279 279 278 279 279 281 281 281 282 283 284 284 284 284 282 280 281 281 281 281 281 281 281 281 282 283 283 283
280 279 281 284 284 288 291 292 291 289 291 291 290 289 289 289 289 290 289 289 290 288 288 287 287 286 286 286 287 286 286 286 286 286 286 284 282 281 280 280 281 281 282 282 284 285 287 287 287 285 281 279 279 278 278 279 278 278 278 278 278 277 277 278 279 279 279 280 280 281 282 283 282 280 279 279 279 279 279 279 279 279 280 281 282 282 281
284 288 288 291 288 287 290 292 292 291 291 293 289 289 289 290 290 290 289 288 288 287 287 286 285 285 285 286 286 286 286 285 285 286 285 283 280 279 279 278 278 279 279 280 281 282 284 286 285 285 282 280 279 278 279 279 278 278 277 277 276 276 276 277 278 278 277 278 278 279 280 281 281 280 279 278 278 278 278 278 278 278 279 280 280 279 278
281 280 286 288 289 289 289 290 291 291 290 291 291 290 289 289 287 287 287 287 286 286 287 286 285 285 285 286 286 285 284 284 284 284 283 281 280 279 278 279 278 277 277 277 277 278 280 284 282 282 283 282 280 279 279 278 278 277 277 276 275 275 275 276 276 276 276 276 277 277 278 279 279 279 279 278 277 277 277 277 276 277 277 278 277 277 277
282 284 287 288 289 290 290 290 289 289 290 289 288 288 287 287 286 285 284 284 283 285 285 286 284 284 285 284 284 284 283 282 281 281 280 279 278 279 279 279 279 278 277 276 276 276 277 279 279 280 280 280 281 280 279 278 278 276 275 275 274 274 274 275 274 275 275 276 276 275 276 277 277 277 278 277 276 276 275 275 274 274 275 276 275 275 276
285 286 287 288 289 289 289 288 286 287 288 288 286 286 285 286 285 283 282 282 281 281 281 283 283 282 283 283 283 279 276 276 276 276 276 276 276 276 275 276 277 276 276 277 277 277 276 277 277 277 277 278 279 280 278 277 277 275 274 274 274 273 273 273 273 274 274 274 274 274 274 274 275 276 276 276 276 276 276 276 276 275 274 275 276 276 276
281 282 284 286 282 283 285 284 285 285 287 286 284 283 281 281 281 282 280 278 278 278 279 279 281 280 281 282 280 276 275 275 275 275 275 275 275 275 275 275 275 275 275 276 277 277 277 277 276 276 276 276 276 278 277 276 275 273 273 273 272 271 272 271 272 272 272 272 272 273 272 272 273 273 277 278 277 275 274 276 277 278 277 275 275 276 276
282 286 286 288 288 286 282 283 284 285 284 283 280 279 278 278 279 279 278 277 275 275 276 277 276 277 277 278 279 278 276 276 276 276 275 275 275 275 275 273 273 273 273 275 276 275 274 275 275 276 276 276 275 277 276 275 274 273 272 271 271 270 270 270 270 271 271 270 271 271 271 271 271 271 271 273 275 276 276 275 276 276 277 277 278 279 277
288 285 283 286 286 284 282 282 282 282 282 280 278 278 278 278 277 277 276 275 274 274 275 275 275 274 275 275 275 275 275 276 277 277 277 276 275 275 275 273 272 271 272 274 273 272 272 273 273 274 274 274 275 276 275 274 273 272 270 270 269 268 268 269 269 270 270 270 270 270 269 269 269 269 269 269 270 273 275 275 275 275 276 277 277 276 276
284 285 286 286 284 280 279 278 278 279 280 279 277 276 276 276 277 277 276 276 276 275 274 274 275 275 274 274 274 273 273 274 274 275 277 277 276 275 274 273 271 270 271 273 272 270 271 271 272 272 272 273 275 274 274 272 271 270 269 268 267 267 267 268 268 268 268 268 268 268 268 267 267 268 268 267 267 268 270 273 274 274 275 275 274 273 274
284 284 285 282 281 281 281 278 276 275 277 277 276 275 275 276 275 274 274 274 273 274 274 274 274 275 275 273 274 273 273 273 273 274 274 275 275 275 274 272 271 270 271 272 270 269 269 270 270 270 271 273 273 272 271 270 269 268 267 267 266 266 266 266 266 266 267 267 267 267 267 267 267 267 267 267 267 267 267 267 269 271 271 271 270 271 272
282 284 285 282 278 274 276 275 273 274 275 276 274 274 274 274 274 273 273 273 272 272 272 272 272 273 274 275 274 274 272 272 271 272 272 273 272 273 274 272 271 270 270 270 268 268 269 269 269 270 270 272 270 270 268 268 266 266 266 265 265 265 266 266 266 266 266 266 266 266 266 266 266 266 266 267 267 267 266 266 266 265 264 266 268 269 267
281 280 282 282 278 273 272 273 273 273 273 273 274 274 273 273 273 272 271 271 271 271 271 271 270 270 270 271 273 273 273 271 269 270 271 271 271 272 272 272 270 269 269 268 267 267 267 267 268 268 271 270 268 268 267 266 265 264 264 263 263 263 264 264 264 264 264 265 265 265 265 265 266 266 266 265 265 265 265 265 264 263 263 264 265 266 265
278 276 276 276 275 274 274 274 273 272 272 272 273 273 273 272 271 270 270 270 270 270 269 269 270 270 269 269 270 271 272 272 269 268 270 270 270 270 270 269 269 268 268 266 266 266 266 266 267 268 268 269 267 266 265 263 262 262 262 262 262 262 262 262 263 263 263 264 264 264 265 265 264 264 263 263 263 262 262 262 263 263 263 263 262 262 264
277 276 275 275 275 274 273 272 271 271 271 271 270 270 271 270 269 269 269 269 269 268 268 268 267 267 268 267 268 268 270 270 270 269 269 269 268 268 267 267 267 266 266 264 264 264 265 265 266 265 266 267 265 264 262 261 261 261 261 261 261 261 261 261 262 262 262 262 263 264 263 262 262 261 261 260 260 261 261 261 261 261 260 260 261 261 261
276 276 275 274 274 273 272 271 271 271 270 270 269 268 268 269 268 268 268 268 268 268 267 267 266 265 266 266 266 267 269 270 269 268 268 268 266 266 265 265 263 262 262 262 263 263 263 265 264 263 265 265 263 262 261 261 261 261 260 260 260 261 261 262 262 261 261 260 260 260 260 260 259 259 259 259 259 259 259 259 259 259 259 260 260 259 258
274 274 274 274 273 272 271 271 270 270 270 270 268 267 267 266 265 266 266 266 266 267 266 265 264 264 264 265 265 266 267 267 266 267 267 266 265 264 264 263 263 263 262 262 262 263 263 264 261 263 264 263 262 261 260 260 260 259 258 259 259 259 260 260 259 259 259 258 258 258 258 258 257 258 258 257 257 257 257 257 257 258 258 257 256 256 257
273 272 271 272 272 272 271 271 270 269 269 269 268 268 267 266 266 265 265 266 265 265 265 264 263 263 263 263 263 264 264 264 264 265 264 263 263 263 262 262 262 261 261 261 262 263 264 261 261 262 262 261 260 260 260 259 258 258 258 258 258 258 258 258 258 257 256 256 256 256 256 256 256 256 255 256 256 257 257 256 256 256 255 255 255 256 257
273 272 272 272 272 271 270 270 270 269 269 269 269 268 267 266 265 264 264 264 264 264 264 263 262 261 262 262 262 262 263 261 261 262 262 261 261 261 261 261 260 260 260 261 262 263 261 260 260 260 260 259 259 259 258 258 257 257 257 257 256 255 255 255 255 255 255 255 255 256 255 255 255 255 255 255 255 255 255 255 254 254 254 254 255 255 257
270 269 269 269 269 269 269 269 268 268 267 266 266 265 266 266 264 262 263 262 262 262 264 263 261 260 260 260 260 261 260 260 260 261 260 260 260 260 260 259 258 258 258 259 262 260 258 259 259 259 259 258 257 257 257 257 257 256 256 255 255 254 254 254 254 254 254 254 254 254 254 254 254 255 255 254 254 254 254 254 254 254 253 253 253 254 255
270 269 269 268 268 268 267 267 267 266 266 265 264 263 263 264 263 262 261 261 262 262 262 261 260 259 259 259 259 259 259 259 259 259 259 259 259 259 258 256 256 255 256 256 260 259 256 257 259 259 258 256 256 255 256 256 256 255 255 254 253 253 253 253 253 253 253 253 253 253 253 254 254 254 254 253 253 253 253 253 253 253 253 253 253 253 253
270 269 269 268 267 266 266 266 265 265 264 263 263 262 261 262 262 262 261 261 261 261 261 260 258 258 257 258 259 259 259 259 259 258 258 258 258 257 255 255 255 255 257 255 257 257 255 257 258 258 256 255 255 254 255 257 255 254 254 253 252 252 252 252 252 252 252 253 253 252 253 253 252 252 253 252 252 252 252 252 252 252 252 252 253 252 252
266 266 266 267 267 266 266 265 265 264 263 263 263 263 262 261 262 261 259 260 259 260 259 258 258 258 257 257 257 256 257 257 257 256 256 256 256 255 253 254 254 255 254 254 256 255 255 256 257 256 254 254 254 254 254 256 256 254 252 252 252 251 251 251 251 251 252 251 252 252 251 251 251 251 251 251 251 251 252 252 252 252 251 251 251 252 251
264 265 265 265 265 264 264 264 263 263 263 262 261 262 262 261 261 260 258 258 258 259 257 257 257 256 255 255 254 255 255 256 256 255 255 255 255 254 253 254 255 255 254 256 255 254 255 256 255 254 253 253 253 253 254 255 255 253 252 251 251 251 251 251 251 251 251 251 251 251 251 251 251 251 251 251 251 251 251 251 251 251 251 251 250 250 250
263 263 263 263 262 263 262 262 262 262 261 262 260 259 261 260 260 258 256 257 257 259 256 256 255 254 254 254 254 254 254 255 255 255 254 254 253 253 253 253 256 254 254 257 254 254 255 256 254 252 252 252 252 252 253 254 254 252 251 250 250 250 250 251 251 250 250 250 250 251 250 250 250 251 251 251 250 250 250 250 250 250 250 250 250 250 250
262 261 261 261 261 262 261 261 260 260 260 261 261 260 260 259 257 255 255 256 256 257 255 255 254 254 254 254 253 253 254 254 254 253 253 252 251 251 252 250 253 252 253 254 254 254 254 254 253 252 251 252 252 253 253 253 252 251 250 250 250 250 250 250 250 250 250 250 250 250 250 250 250 250 250 250 250 250 250 250 250 250 250 249 249 250 250
260 260 260 260 260 260 260 260 260 258 258 260 260 258 258 258 255 254 255 255 255 255 254 253 255 254 254 253 253 253 252 252 252 252 252 251 250 250 250 250 253 252 254 254 253 253 252 250 251 252 252 252 252 253 253 252 251 250 250 250 250 250 250 250 250 250 250 250 250 250 250 250 249 249 249 249 249 249 249 249 249 249 249 249 249 249 249
259 258 258 258 258 258 258 258 257 257 256 258 259 257 258 256 255 254 254 254 253 252 253 252 253 253 253 252 251 251 251 251 250 249 249 249 251 251 251 250 251 252 254 253 252 251 251 250 250 248 253 253 253 253 253 251 250 250 249 250 250 250 250 250 250 250 250 249 249 249 249 249 249 249 249 249 249 249 249 249 249 249 249 249 249 249 249
258 257 257 257 256 257 257 256 256 255 256 256 258 257 256 254 254 253 252 252 252 251 252 250 251 250 251 251 250 249 249 249 249 249 249 248 249 249 251 250 250 252 253 252 252 251 251 251 250 252 253 253 253 253 252 250 250 249 249 249 249 249 249 249 249 249 249 249 249 249 249 249 249 249 249 248 248 248 249 249 249 249 249 249 249 249 249
256 256 256 256 255 256 255 255 254 254 255 256 255 255 254 252 252 252 252 250 250 250 251 250 249 250 249 249 249 249 249 249 249 249 247 247 248 249 251 253 251 251 252 253 251 251 250 250 252 253 253 253 252 252 251 249 249 249 249 249 249 249 249 249 249 249 249 249 249 249 249 249 249 249 248 248 249 249 249 249 249 249 249 249 249 249 249
255 256 256 255 254 254 255 254 253 254 253 253 253 254 253 250 249 249 249 249 247 248 250 250 249 249 249 249 248 248 248 248 249 249 249 250 248 248 251 252 251 252 252 252 251 250 250 252 252 252 252 252 252 251 250 249 249 249 248 248 248 249 249 249 249 249 249 249 249 249 249 249 249 249 249 248 249 249 249 250 249 249 249 249 249 249 249
254 254 254 254 253 254 253 252 253 252 251 250 249 250 251 250 248 248 248 248 247 247 248 249 249 249 250 249 248 247 246 247 248 249 249 246 250 250 251 252 252 252 252 251 250 250 250 251 252 252 252 252 252 250 249 249 248 248 248 248 248 248 248 248 248 248 248 248 249 250 250 250 249 248 249 249 248 248 248 248 248 249 249 249 249 250 249
252 252 252 251 251 251 250 249 249 247 248 248 249 247 248 247 247 246 247 248 247 246 247 247 248 246 248 247 247 247 248 247 246 246 248 245 246 249 249 248 250 251 252 251 251 251 252 251 252 252 252 252 251 249 248 248 248 248 248 248 248 248 248 248 248 248 248 249 249 248 248 248 248 248 248 248 248 248 248 249 248 249 249 249 249 249 249
251 251 250 251 250 249 248 249 248 249 248 248 247 247 248 247 246 246 247 246 245 246 246 246 246 246 245 248 247 248 247 249 248 246 248 249 248 248 248 250 251 251 251 250 249 249 251 251 251 251 251 251 249 248 248 248 248 249 249 248 248 248 248 248 248 248 248 249 249 249 249 248 248 248 248 248 248 248 249 249 248 248 248 249 249 249 249
250 251 250 250 249 248 247 246 246 246 247 248 246 247 247 245 245 246 247 246 246 248 246 246 246 246 247 247 246 247 248 248 248 249 249 249 248 248 249 249 249 251 251 250 249 249 250 251 251 250 250 249 248 248 248 248 248 248 248 249 249 248 249 249 250 250 249 249 249 249 249 249 248 249 249 249 248 249 249 249 249 249 250 250 249 249 249
249 249 248 249 248 248 247 246 246 246 246 246 246 246 247 245 245 247 246 247 246 246 245 245 246 246 246 246 247 247 247 247 248 250 249 249 249 249 250 250 250 250 250 250 249 249 249 248 248 249 249 249 248 248 247 248 248 249 249 248 248 248 248 249 249 248 248 249 249 249 249 249 249 248 248 248 249 249 249 249 249 249 249 249 249 249 249
247 247 247 246 246 246 246 246 245 246 246 246 246 245 245 246 245 245 245 248 246 244 245 245 244 246 246 246 247 247 247 248 248 248 249 249 248 248 249 250 249 249 248 248 248 248 248 249 250 250 250 249 248 248 249 250 249 248 248 249 249 249 249 249 249 249 249 249 249 249 249 249 249 249 249 249 249 249 249 249 249 249 249 249 249 249 249
Wind_Speed
3 4 3 2 2 5 4 5 5 7 8 7 11 11 13 2 5 13 3 2 5 16 15 12 10 5 5 6 8 6 4 5 5 2 1 2 3 3 3 3 1 2 4 4 5 5 5 6 6 6 6 6 6 7 6 5 5 6 6 6 7 7 7 7 7 7 7 6 6 6 6 6 7 7 7 6 6 6 6 7 7 7 7 8 8 9 8
5 8 9 6 7 3 2 6 7 6 8 13 14 14 10 10 11 12 13 11 15 19 20 15 11 7 5 7 6 5 3 5 5 2 1 1 2 2 3 2 2 2 4 5 5 6 7 7 8 7 6 7 7 8 7 6 7 6 7 7 7 8 7 7 7 7 8 7 7 7 7 7 7 7 7 7 7 6 7 7 7 7 7 8 8 8 9
5 1 3 1 0 1 5 8 8 9 11 9 11 8 9 6 9 17 19 14 18 21 18 9 8 8 5 4 5 6 5 2 2 2 1 1 2 3 2 2 2 3 5 5 6 5 5 5 5 5 5 6 6 6 6 7 7 7 6 7 7 7 8 7 7 7 7 7 8 8 7 7 7 7 8 8 7 7 8 7 8 8 8 8 8 8 8
4 1 0 1 3 4 7 11 12 12 9 7 7 9 9 7 14 8 3 7 13 18 9 4 4 3 3 4 5 5 4 1 1 2 1 2 3 3 3 3 3 5 5 5 5 4 5 5 5 5 5 5 5 6 7 7 7 7 7 7 7 8 8 8 8 8 8 8 8 9 8 9 9 8 8 8 8 8 8 9 9 7 8 8 8 8 8
4 1 1 2 2 5 7 11 13 14 11 10 3 7 5 12 9 4 7 11 13 8 3 5 5 2 2 3 4 4 5 6 3 2 1 3 3 3 2 3 5 5 4 4 4 5 5 5 6 5 5 5 6 6 7 7 7 7 7 7 7 7 7 7 8 8 8 9 9 10 10 10 10 9 9 9 9 9 10 9 8 8 9 9 9 8 8
1 1 3 1 3 6 8 1 4 6 6 11 12 8 12 14 10 10 10 14 7 6 7 4 7 8 7 4 5 4 4 5 6 3 3 2 2 1 3 4 4 3 3 3 3 4 4 5 5 5 5 5 5 6 7 7 7 7 7 8 7 7 7 8 8 8 9 10 10 10 10 10 10 11 11 11 10 9 8 9 8 9 8 9 9 8 8
2 1 5 6 7 10 3 2 3 1 4 9 14 10 9 8 12 16 14 14 13 13 10 8 7 6 7 5 5 8 7 3 3 5 5 4 0 3 4 4 3 2 2 3 4 4 5 5 5 5 5 5 6 7 7 7 7 8 7 7 8 8 10 10 10 11 11 11 11 11 11 11 11 11 11 11 11 10 10 10 10 11 11 11 11 10 10
2 2 0 1 7 3 4 6 2 0 4 2 1 6 12 14 15 16 15 17 15 13 12 11 7 6 3 3 5 8 10 4 4 5 2 1 2 2 2 3 2 4 4 5 5 4 4 5 5 5 6 6 7 6 6 6 7 8 8 9 10 11 12 12 13 13 12 12 12 12 12 11 11 12 12 12 12 11 10 10 9 9 9 8 11 11 11
2 3 4 9 6 12 9 2 1 3 4 4 5 3 6 4 6 8 10 13 12 12 12 9 6 0 1 3 8 8 5 2 3 3 2 2 3 4 4 4 4 5 5 5 5 5 6 5 6 7 6 7 6 6 7 8 8 8 10 12 13 13 13 14 14 13 13 13 13 12 12 12 13 13 13 13 12 10 11 10 10 11 10 10 9 10 11
5 3 4 4 1 4 6 3 1 0 0 2 1 1 7 8 12 7 8 9 11 10 7 4 1 3 1 5 5 4 7 6 4 2 4 5 5 5 5 5 6 6 6 7 7 7 6 7 8 7 6 7 7 7 8 8 10 11 12 13 13 13 12 13 13 13 13 13 13 13 12 13 13 12 12 11 12 11 11 12 12 12 12 11 10 9 11
2 1 3 4 3 6 3 2 2 1 1 1 1 3 8 5 2 2 9 7 6 5 4 1 4 1 4 7 4 3 2 4 5 5 5 6 7 7 8 9 9 10 9 8 7 8 9 10 9 8 8 8 8 9 8 10 11 12 12 12 13 13 13 12 12 12 11 11 12 12 12 12 11 12 12 12 11 11 11 11 12 11 11 11 12 11 10
4 2 3 8 4 4 3 4 1 3 2 3 1 6 6 2 1 0 3 0 1 3 2 5 3 2 7 7 3 1 5 4 4 5 6 8 9 11 12 13 10 8 7 8 10 11 11 10 9 9 8 7 9 10 11 11 12 13 14 14 13 12 12 12 12 12 11 11 11 11 12 11 11 11 11 11 11 12 12 10 11 11 11 11 12 11 10
4 6 7 4 6 3 3 6 4 4 3 1 1 6 10 2 1 0 2 0 1 1 1 4 4 5 5 1 2 2 1 4 7 9 10 9 10 12 13 12 11 9 9 10 11 11 9 9 8 8 8 9 11 11 11 13 14 13 13 13 13 12 12 12 12 12 11 11 12 11 10 11 11 10 10 10 11 11 12 11 11 11 12 12 12 11 10
8 6 7 9 5 5 8 0 10 5 2 2 8 8 2 3 1 1 1 1 1 1 3 2 2 3 5 7 7 10 10 11 8 10 11 11 12 12 11 13 12 9 9 10 11 10 9 10 10 9 9 11 12 12 12 14 13 12 12 12 12 11 12 12 11 11 12 12 10 10 10 11 11 10 10 11 11 12 11 11 12 13 13 12 12 12 10
1 3 4 5 6 4 7 9 3 0 3 8 5 2 1 1 2 3 2 1 3 1 4 3 4 5 6 6 6 8 11 11 11 12 12 12 12 13 14 14 13 11 9 10 10 9 8 8 8 8 10 11 11 11 13 13 11 12 12 11 11 11 11 12 11 12 12 13 12 10 11 12 11 11 11 12 13 12 13 14 14 15 14 13 13 13 13
6 6 6 8 10 3 7 13 7 6 11 6 1 4 6 3 4 5 5 4 4 5 4 5 5 5 5 8 8 10 11 11 11 11 12 12 12 13 12 12 11 11 10 9 10 9 8 9 9 9 10 11 10 11 12 10 10 11 11 11 11 12 11 11 11 11 12 13 12 11 12 12 10 11 13 13 12 11 13 14 14 15 13 13 13 13 14
6 8 10 8 4 5 10 10 8 5 10 8 4 3 3 5 5 2 5 5 7 6 5 6 7 8 8 8 9 11 10 11 11 11 12 13 14 14 14 13 12 11 11 10 10 10 10 11 11 9 9 10 11 11 9 10 11 11 12 11 11 12 12 12 12 11 12 12 13 12 13 11 10 11 11 11 11 11 12 12 13 13 13 12 12 12 14
4 9 7 3 1 3 7 10 10 5 3 2 2 4 6 4 5 9 5 6 8 9 7 9 8 9 6 9 11 11 11 10 10 10 10 13 14 13 13 13 13 11 11 12 13 13 12 12 13 11 8 9 11 9 8 9 10 11 11 12 13 13 12 12 12 12 13 13 13 14 14 12 11 10 11 11 11 11 10 10 11 13 14 13 13 13 14
2 9 1 10 12 6 8 6 4 6 5 6 6 7 7 9 10 10 10 10 10 9 11 11 10 10 8 9 10 10 9 10 10 10 12 13 13 13 13 12 12 12 12 12 13 14 13 12 13 12 13 10 8 8 9 9 9 9 10 11 12 12 14 13 13 13 14 13 13 13 13 13 12 11 11 10 11 11 10 11 13 13 15 13 14 13 15
8 13 2 0 2 6 2 1 4 5 9 11 13 10 8 10 12 13 10 11 12 11 12 11 12 11 11 11 10 10 11 11 11 12 13 13 13 13 12 12 12 11 12 12 12 12 13 14 14 13 12 12 12 10 9 9 9 10 11 11 12 12 14 12 12 13 12 15 16 14 14 13 13 13 11 10 10 11 12 12 13 15 15 14 14 14 14
10 8 9 9 9 13 6 8 11 7 6 7 11 12 12 10 12 14 15 14 12 12 11 10 11 12 11 10 11 12 11 11 11 11 11 11 11 10 12 13 12 12 11 11 12 11 12 12 13 13 14 14 14 13 8 9 9 10 11 11 12 12 13 13 13 12 12 13 14 13 13 13 12 12 12 13 13 13 9 8 11 15 16 17 14 12 11
10 12 5 2 5 5 2 8 9 9 7 8 10 11 14 13 11 10 13 14 14 13 13 11 10 12 10 11 11 12 11 11 11 10 10 9 9 10 10 11 13 13 13 12 11 11 11 13 12 13 13 14 14 13 8 9 10 11 12 12 12 12 12 12 13 13 14 14 12 12 13 14 14 14 13 15 16 14 16 19 20 23 21 18 19 19 17
14 3 3 5 3 3 6 4 6 8 7 10 13 12 11 11 11 10 11 11 13 14 13 12 12 12 11 12 11 11 10 9 9 9 9 9 9 9 10 11 13 13 12 11 12 13 14 14 13 12 13 13 13 10 8 10 11 12 13 12 12 12 13 12 15 16 14 12 11 12 12 12 14 15 16 15 16 22 19 20 24 29 30 31 31 27 20
8 8 3 4 2 4 7 8 8 9 8 11 12 11 11 11 11 11 14 12 12 11 12 13 13 12 12 12 12 12 12 11 10 9 8 8 8 8 8 9 11 13 12 11 12 13 13 12 14 12 12 13 12 9 11 11 13 12 14 13 13 13 13 14 16 15 11 12 13 13 13 13 14 14 15 17 18 14 14 17 17 26 32 32 28 28 33
1 4 4 6 11 11 9 8 9 8 8 10 11 11 11 11 12 12 13 12 12 11 10 11 11 11 11 11 11 11 10 11 11 10 9 7 7 8 8 9 11 12 11 9 10 11 11 12 11 12 12 12 10 11 12 14 14 15 15 14 14 14 14 15 14 15 13 12 12 12 14 14 12 12 13 14 15 18 17 15 17 20 22 23 28 33 34
3 4 3 9 9 7 6 8 12 10 8 9 11 11 12 12 12 14 14 12 11 11 11 10 10 9 9 9 9 9 10 10 10 9 8 9 9 8 8 9 10 10 9 8 10 11 11 12 12 11 11 11 11 12 13 15 14 15 14 14 14 13 13 15 14 13 12 12 12 13 13 12 12 13 13 12 14 15 18 19 18 13 8 11 20 26 25
5 2 2 6 8 9 8 6 5 7 8 10 12 12 11 11 12 11 11 11 12 11 11 10 9 8 8 7 7 7 8 7 9 8 7 8 10 9 8 7 9 10 9 8 10 11 12 11 10 11 11 9 12 13 15 15 15 15 15 15 14 17 23 18 12 12 13 13 13 14 14 13 13 12 12 13 15 15 14 16 18 18 19 17 16 16 20
7 7 2 4 3 5 7 9 10 9 10 9 9 10 10 9 10 11 11 11 10 10 9 9 9 9 8 8 7 6 6 7 8 9 8 9 9 9 9 10 11 11 8 8 10 10 11 10 10 11 9 11 13 14 15 16 17 16 15 14 13 12 12 14 13 14 12 12 13 13 13 13 14 15 15 15 16 16 17 16 15 16 15 13 15 21 33
8 9 10 11 11 11 10 9 10 10 10 9 9 7 8 11 10 10 10 9 8 8 9 9 8 8 7 7 8 7 7 7 7 10 7 8 9 10 10 11 11 10 9 10 10 12 11 11 11 10 12 12 12 13 14 15 15 14 13 13 12 12 12 13 13 11 12 13 13 15 16 17 15 15 16 17 17 16 15 13 14 15 13 15 17 20 20
5 7 9 8 9 9 10 9 9 9 9 8 10 9 8 9 9 9 8 7 7 8 7 7 7 8 7 7 8 8 8 8 7 7 6 7 8 9 10 11 9 7 8 9 12 13 12 12 10 11 12 13 12 13 15 14 13 12 12 12 11 11 12 14 13 12 13 13 14 19 15 15 14 14 15 15 16 16 16 16 18 18 17 17 18 16 17
6 8 10 10 9 9 11 10 9 8 8 8 9 9 8 9 9 7 7 6 6 6 7 7 7 7 7 7 7 7 7 7 7 7 5 7 8 9 9 11 10 10 11 12 12 11 10 10 9 10 12 13 13 15 15 13 12 12 12 11 10 18 23 24 18 14 14 15 16 16 16 15 14 15 17 16 17 16 15 15 15 15 15 13 13 16 18
10 8 8 8 9 9 9 7 8 8 7 7 8 9 8 7 7 7 6 6 6 5 6 7 8 8 7 7 7 7 7 7 7 6 5 6 8 8 9 9 9 10 11 11 10 11 9 8 9 11 13 13 15 15 13 12 12 12 12 13 13 12 15 22 15 16 16 16 15 14 15 15 15 15 15 16 16 16 16 15 15 15 14 17 19 17 18
10 8 6 7 7 8 8 6 7 7 7 7 7 7 7 7 7 6 6 5 5 6 6 7 7 7 7 7 7 7 6 7 6 5 6 7 8 8 8 7 7 8 9 10 10 9 6 9 10 12 12 13 14 13 12 12 12 11 12 11 11 12 14 16 19 16 14 14 13 13 13 14 14 14 14 16 15 16 15 16 17 18 17 17 16 16 17
3 5 6 5 5 7 9 8 7 7 7 7 7 6 6 7 7 6 5 5 5 5 6 6 7 7 6 6 6 6 7 7 6 6 8 8 9 9 9 8 8 9 9 10 10 5 7 8 10 11 13 13 12 11 11 11 10 10 11 11 12 13 14 13 15 13 13 13 13 15 13 14 13 13 14 14 15 15 17 17 17 17 16 15 15 16 21
10 10 9 9 8 8 7 7 6 6 6 6 6 6 6 5 5 6 6 5 4 5 5 5 5 6 5 5 5 5 7 6 7 7 8 9 9 10 9 10 11 9 8 5 7 6 9 11 12 13 13 11 11 10 10 11 11 10 11 12 13 13 13 13 13 13 13 13 13 12 12 13 13 14 16 15 14 15 14 15 15 16 15 15 15 16 18
9 8 8 8 8 8 8 7 7 7 7 6 6 5 5 5 5 5 6 5 4 4 4 4 5 5 5 5 5 6 7 7 7 7 8 9 9 8 9 10 12 9 8 3 6 7 11 11 18 22 14 11 10 9 10 12 10 10 12 12 11 12 13 13 13 12 12 12 12 12 12 16 17 15 15 13 13 12 12 13 13 14 14 14 14 15 14
8 8 7 8 7 8 8 7 6 5 5 6 5 5 4 5 4 4 5 5 4 4 5 5 5 5 6 6 6 6 6 6 6 7 8 8 7 6 8 9 9 8 7 5 6 9 10 11 19 22 14 9 9 9 11 19 11 10 10 10 10 10 11 11 11 11 11 10 11 12 15 14 11 11 13 11 11 11 11 12 14 14 12 13 13 14 15
8 8 8 7 7 7 7 6 5 5 5 6 5 5 4 4 4 4 5 5 5 5 5 5 5 5 5 4 4 5 5 5 5 6 7 7 7 7 7 9 8 7 4 4 7 9 9 14 19 13 9 9 9 8 12 20 21 13 9 10 10 10 11 10 11 11 11 11 12 11 10 10 11 11 10 10 10 10 12 12 13 13 12 12 12 12 12
8 7 7 6 7 7 6 6 6 6 4 4 4 4 4 6 4 5 5 5 5 4 4 5 6 5 4 4 4 4 4 5 6 7 7 8 6 6 7 8 9 3 2 6 9 9 10 12 12 10 9 9 10 9 13 19 22 12 9 9 10 9 10 9 10 11 11 12 10 11 11 10 10 11 10 11 11 12 13 14 15 13 12 12 12 12 12
6 6 6 5 5 5 5 5 5 5 6 4 5 4 4 4 4 5 4 3 5 4 4 5 5 5 5 5 5 4 5 6 7 7 9 9 8 7 4 5 5 5 8 12 9 8 12 18 13 8 8 8 8 8 11 18 18 10 9 8 9 9 9 9 9 9 10 10 11 13 11 11 10 11 11 12 11 12 11 12 12 12 12 12 12 12 11
5 5 5 5 5 5 4 4 4 5 5 4 5 5 5 4 5 5 4 4 4 4 4 5 4 4 6 5 5 6 6 6 6 6 8 8 7 6 5 6 3 7 10 9 9 8 12 10 10 9 8 9 7 11 11 17 13 8 9 8 8 9 9 9 9 9 10 11 11 11 11 10 11 12 11 11 11 11 11 11 11 11 11 12 12 12 12
5 5 5 5 4 4 4 4 4 4 4 4 4 4 4 4 5 3 3 4 4 4 3 3 7 5 5 5 6 6 6 6 5 5 7 7 6 7 7 5 4 6 13 14 11 9 5 5 7 8 8 10 10 18 21 14 9 9 9 9 8 8 9 10 10 10 10 9 9 10 10 10 10 10 11 11 11 11 12 12 11 11 10 11 11 12 12
6 5 4 4 4 4 3 3 3 3 2 4 4 4 2 4 4 3 3 3 3 3 4 4 4 6 5 6 6 6 6 6 6 7 6 4 7 7 6 5 5 6 15 11 10 7 7 4 6 5 12 15 13 21 21 10 8 8 8 8 9 9 9 9 9 9 10 9 10 9 10 10 10 10 11 11 11 11 12 12 12 12 12 11 12 12 12
5 4 4 4 3 3 3 1 3 3 1 2 4 3 3 4 4 2 2 2 3 4 5 4 5 4 5 5 5 5 5 6 7 7 7 8 5 5 4 4 5 9 14 9 7 8 8 7 5 11 17 20 21 22 13 8 8 7 8 8 9 9 9 9 9 9 9 10 10 10 10 11 10 10 10 11 11 11 11 12 11 11 12 12 12 12 12
4 4 4 3 3 2 2 2 1 2 2 3 3 2 4 5 4 4 2 2 4 5 4 4 4 5 4 5 4 4 5 6 6 7 7 7 9 8 3 5 7 7 9 13 8 7 6 8 12 19 18 20 21 20 10 8 7 7 7 8 8 8 8 9 9 9 9 9 9 9 10 10 10 10 10 11 11 11 11 12 12 12 12 12 12 12 12
3 3 3 4 2 2 2 2 2 2 2 2 2 1 3 3 2 2 3 3 3 4 5 5 4 5 6 6 5 5 5 6 6 6 6 7 7 6 8 11 8 7 15 16 7 7 6 11 17 18 19 20 21 14 8 7 7 7 7 8 8 9 8 8 9 9 9 9 9 9 9 9 10 9 10 10 10 11 11 13 13 11 11 11 11 12 12
3 2 2 3 2 1 3 2 2 2 2 1 1 1 4 3 3 3 4 5 5 5 5 6 5 6 6 5 6 6 7 8 6 5 6 5 6 6 9 14 14 15 12 9 8 7 7 9 12 17 18 20 19 10 8 8 8 7 7 7 7 7 8 8 9 9 9 9 10 11 11 11 10 10 10 10 11 10 10 11 10 11 11 12 12 13 12
2 2 1 2 1 1 3 4 2 1 1 1 1 1 3 3 5 4 5 6 6 5 5 5 6 5 5 5 6 5 5 5 10 11 0 4 4 6 7 6 9 14 17 12 12 10 14 15 16 18 19 19 12 8 8 8 8 8 8 8 8 8 7 7 8 8 8 9 9 9 9 9 10 9 9 10 10 10 10 10 10 11 11 11 11 12 12
2 1 1 3 0 5 3 1 1 2 1 2 3 2 2 4 5 6 6 5 6 5 5 5 6 6 5 7 5 6 5 5 5 8 7 6 6 6 7 8 13 14 11 9 9 8 10 13 15 16 17 14 8 8 8 8 8 8 8 8 8 8 8 8 8 8 8 9 9 9 9 10 10 10 10 10 10 10 11 11 11 10 10 11 12 12 12
1 1 2 2 3 2 1 2 2 2 3 4 3 3 3 4 4 6 5 4 5 6 5 5 6 6 6 6 5 6 6 6 7 8 8 8 7 7 7 8 8 12 12 10 8 9 8 12 12 12 10 7 7 7 7 8 8 8 8 9 9 8 9 11 11 12 10 9 8 9 9 9 9 11 11 10 10 11 10 10 10 13 20 14 11 11 11
2 2 1 3 2 1 2 2 1 3 2 3 3 3 3 3 4 7 5 5 5 6 5 5 6 6 6 6 6 6 6 6 7 7 7 7 7 7 8 8 9 9 10 10 9 9 9 8 7 8 8 8 7 7 7 7 8 9 9 9 9 9 9 10 9 9 8 9 8 9 9 9 9 10 10 10 10 11 11 11 11 11 10 10 11 11 11
0 1 1 2 2 3 3 3 3 2 2 1 2 3 3 4 5 5 6 6 5 4 5 6 9 6 4 6 7 7 6 7 7 7 7 8 8 7 8 9 8 9 9 8 8 9 9 9 9 9 9 8 7 7 9 12 9 8 9 10 8 9 10 10 10 9 9 10 9 9 10 9 9 9 10 9 10 10 10 10 10 10 10 10 11 11 12
Wind_Direction
273 277 272 183 179 210 223 225 210 191 203 180 193 224 226 215 183 247 249 342 302 274 271 277 287 306 303 297 290 285 288 284 286 294 334 325 307 310 333 308 313 352 356 346 351 3 7 12 11 2 355 352 353 351 345 342 351 346 349 343 327 320 320 321 318 315 313 311 306 306 305 304 303 299 296 293 291 288 284 277 271 265 265 266 270 267 264
287 276 263 252 225 248 246 244 232 220 193 211 208 229 229 221 245 259 275 280 278 277 278 283 292 304 290 278 278 291 295 256 241 243 265 278 292 303 299 296 320 355 359 9 14 20 16 10 2 359 359 355 348 341 338 345 349 339 350 334 326 324 324 321 319 319 317 315 314 314 316 310 305 304 303 301 298 296 290 281 277 275 275 271 266 266 269
283 306 32 57 134 177 264 263 241 224 226 225 221 235 250 237 274 261 263 280 280 273 269 290 290 275 263 288 289 270 261 246 203 210 230 266 295 293 293 311 330 3 16 26 31 29 13 1 353 358 352 342 339 337 341 346 342 335 343 331 328 327 325 323 323 321 323 318 320 320 315 314 311 312 309 308 307 302 298 293 288 286 281 280 277 272 269
296 328 13 223 231 223 238 262 255 234 215 228 222 212 218 174 225 242 283 272 256 262 286 256 239 243 256 256 266 279 283 274 339 310 297 298 291 290 292 314 360 27 34 34 29 10 356 353 3 356 348 342 344 343 341 340 337 337 340 333 331 330 325 327 330 330 327 324 324 320 322 319 317 313 313 313 312 307 305 303 299 297 295 285 284 283 279
254 282 263 269 312 327 298 261 240 227 212 212 228 240 219 212 200 199 216 237 232 261 291 297 289 247 257 283 282 303 306 295 289 285 284 284 280 274 307 18 41 45 41 27 13 358 356 2 359 345 350 352 347 344 342 336 342 339 336 334 333 332 330 334 336 336 338 339 334 332 331 328 325 326 324 321 318 318 313 306 305 306 300 299 294 290 284
243 239 266 221 13 311 249 221 187 149 178 201 212 233 221 226 166 215 206 236 270 297 291 277 283 299 284 266 268 249 241 270 289 308 285 262 272 339 55 60 58 46 35 9 2 358 2 356 345 348 352 351 343 345 345 343 343 340 339 336 337 335 341 344 346 346 345 341 337 333 332 331 331 330 329 326 323 319 315 315 314 310 307 303 300 296 291
276 332 351 344 276 239 260 306 249 245 205 179 201 234 245 232 219 241 257 261 262 260 261 257 261 263 281 313 299 297 283 241 221 242 259 288 343 53 36 37 28 33 30 11 12 4 1 356 347 356 350 357 1 356 351 348 345 344 342 338 346 353 353 351 351 349 347 342 338 336 335 334 332 329 328 327 328 328 326 323 322 320 319 317 310 305 301
332 32 158 303 236 272 280 249 220 119 71 72 120 290 264 245 231 222 234 246 252 260 265 262 247 259 277 338 290 272 270 246 200 205 222 147 80 56 64 65 30 34 25 23 12 4 352 353 346 5 4 4 8 350 346 354 352 347 354 2 4 3 357 355 352 347 345 342 340 338 335 336 335 332 332 331 328 327 325 319 313 309 306 305 303 305 303
198 208 190 235 319 317 301 288 236 164 187 181 157 216 281 248 242 196 221 243 250 252 257 259 272 258 52 354 296 288 276 202 119 115 106 102 78 77 51 64 51 39 28 16 2 7 352 357 16 13 8 10 1 354 3 0 357 5 15 15 10 4 358 351 346 344 343 340 338 337 337 337 336 333 332 331 328 328 322 319 317 316 311 308 307 305 306
169 241 305 322 315 250 279 232 271 349 165 132 169 111 282 259 260 234 184 224 234 246 259 262 147 92 29 332 293 16 67 83 107 64 76 66 66 60 44 38 41 27 16 16 5 19 17 22 19 8 11 8 4 15 11 5 19 24 22 14 4 356 349 344 341 340 339 338 336 335 336 335 333 330 329 327 327 327 325 322 321 318 315 313 311 308 305
67 169 203 227 208 243 208 257 240 172 160 133 143 28 304 273 273 267 161 208 238 224 230 165 103 84 338 292 266 198 123 51 49 51 51 57 54 48 48 45 32 24 19 14 17 23 27 21 7 11 15 12 24 20 16 28 27 22 15 5 357 350 343 338 335 335 333 333 332 332 331 331 330 330 330 328 322 322 321 319 315 315 314 313 313 311 309
197 158 240 246 207 246 267 234 245 205 139 140 78 8 285 284 359 220 128 182 222 242 213 134 136 243 302 296 288 103 76 67 73 78 65 51 46 45 44 34 27 20 13 27 25 29 25 12 2 15 14 23 29 28 33 30 25 17 8 360 351 344 338 335 334 332 331 329 329 329 328 327 331 329 324 322 324 322 319 317 314 314 312 311 309 308 308
227 217 261 311 286 274 219 205 182 157 171 111 11 229 240 244 201 233 144 163 229 208 197 156 288 222 218 267 85 115 71 60 48 49 52 59 57 57 46 30 20 17 21 31 29 24 16 6 16 17 18 33 36 33 31 27 20 12 2 354 349 343 337 334 332 331 330 328 327 326 328 330 326 323 323 324 322 322 319 316 314 313 313 311 308 307 308
211 204 221 244 268 234 211 320 150 182 111 202 205 234 211 105 120 239 201 272 261 263 265 248 228 299 341 5 9 14 34 59 57 53 49 47 49 49 45 33 26 21 28 30 27 16 7 14 22 20 32 42 35 33 32 25 13 4 357 353 345 341 337 334 332 331 331 329 327 328 333 330 327 326 329 328 325 323 319 319 320 318 318 315 314 313 313
181 211 235 332 296 290 151 122 70 122 149 232 213 303 341 116 95 22 326 252 274 329 310 334 355 6 0 1 21 49 54 55 53 51 47 47 48 41 30 23 18 23 27 29 23 11 6 22 24 28 46 42 36 31 31 17 3 1 354 349 343 341 338 336 337 337 337 335 331 334 331 327 324 329 334 332 329 329 328 329 327 325 324 323 320 318 316
162 173 180 204 214 218 163 146 180 213 210 226 78 57 318 349 4 327 314 324 10 36 31 20 10 5 14 32 47 58 53 51 50 50 50 50 49 44 37 28 18 20 24 21 19 7 10 26 23 39 47 41 34 33 22 9 1 360 355 351 347 345 342 339 338 341 340 336 334 333 330 325 327 334 336 334 332 333 334 330 328 324 324 322 318 316 317
175 200 215 239 229 182 195 199 220 213 228 250 322 350 284 297 294 331 13 357 25 37 37 41 38 49 43 61 53 63 54 52 48 46 49 50 47 42 34 25 17 20 18 12 14 9 10 27 20 41 44 38 27 24 11 5 4 360 353 350 350 346 343 339 339 339 337 337 336 333 330 326 328 332 329 331 328 330 329 325 323 321 318 318 315 316 317
268 263 230 175 157 164 217 240 239 263 322 357 13 319 310 309 1 37 48 40 44 34 37 72 49 50 40 54 54 56 53 53 48 48 51 53 50 44 37 29 19 20 17 16 15 10 8 24 21 19 29 27 23 8 4 6 1 360 353 353 352 346 342 338 339 338 338 337 337 334 331 329 325 324 324 324 324 324 324 321 321 318 319 317 317 317 314
346 271 254 203 236 227 228 242 301 288 276 283 306 335 6 41 47 48 45 54 46 44 48 64 68 49 36 55 61 57 53 50 48 49 51 53 50 42 35 29 23 20 19 19 17 12 8 18 17 6 7 4 9 1 3 1 0 358 355 353 349 345 345 341 340 340 339 336 333 331 330 326 322 320 322 322 321 320 321 322 321 318 314 313 312 312 311
212 245 180 98 313 278 266 78 298 347 13 33 44 54 52 68 65 59 48 49 48 41 49 50 62 55 45 50 56 57 54 50 44 44 44 44 40 34 30 21 22 21 19 15 12 11 10 9 6 360 358 356 352 353 355 1 359 359 355 354 348 344 341 339 337 335 334 330 331 329 327 325 322 318 316 317 316 316 323 327 324 316 311 308 310 309 310
257 279 285 286 284 279 305 30 40 21 12 46 50 51 50 49 67 67 59 52 52 46 42 44 58 59 51 53 59 61 54 50 45 42 41 40 39 34 30 18 17 18 11 10 6 8 9 6 2 355 354 351 347 343 1 4 1 359 352 348 346 344 341 339 335 334 330 330 328 324 321 321 318 319 320 319 317 309 305 314 313 310 312 308 305 304 303
258 253 263 170 261 286 67 23 23 25 31 60 63 57 54 46 45 59 71 62 54 54 45 40 50 60 50 51 63 69 66 61 54 47 42 38 38 36 32 26 18 16 8 5 5 3 6 1 358 350 352 346 344 344 15 4 3 359 351 346 344 345 341 337 331 331 331 328 325 323 324 323 323 316 308 306 307 306 308 308 302 301 305 305 304 306 304
264 314 23 342 309 72 78 45 15 37 39 62 62 58 62 59 58 57 69 71 63 56 49 42 47 50 52 44 49 62 65 58 55 51 46 39 32 26 27 27 18 13 1 359 9 9 5 354 352 345 346 340 338 353 19 4 4 359 354 349 345 342 340 336 333 329 327 322 322 321 321 322 317 315 312 306 297 298 293 293 303 308 307 303 301 304 315
268 61 324 330 19 91 90 56 43 40 40 67 71 66 65 67 66 66 69 68 72 68 62 54 49 49 51 50 48 47 39 38 34 34 38 38 36 29 26 33 20 10 356 360 10 7 353 352 344 345 339 336 338 11 7 9 3 1 355 352 345 339 335 331 329 327 321 319 317 319 317 316 314 314 311 310 308 297 291 294 295 303 305 305 313 322 317
19 6 357 47 93 98 89 69 55 49 50 67 75 66 66 69 67 67 70 69 63 66 63 60 55 53 52 46 51 46 43 32 21 11 15 25 36 30 26 28 22 11 352 359 6 354 349 342 339 341 336 330 355 17 10 9 1 359 352 349 340 334 329 327 322 320 318 317 317 316 316 315 313 310 309 312 311 314 313 302 289 294 300 312 317 314 310
62 344 73 86 73 73 113 95 61 47 45 66 77 76 68 69 73 71 68 66 64 56 56 53 52 45 57 56 43 50 42 36 24 14 15 13 14 13 20 31 20 2 342 358 1 347 342 338 342 338 337 337 18 14 14 0 0 351 346 342 334 328 325 323 321 318 320 319 317 316 314 312 310 311 309 309 308 311 312 314 315 309 290 294 306 305 310
44 348 186 136 84 68 46 78 93 60 62 70 79 81 79 77 75 75 74 70 66 60 56 46 40 37 32 43 53 40 59 35 24 16 15 13 13 6 10 30 10 355 346 359 350 344 342 337 335 342 331 10 22 12 3 358 353 346 341 336 330 325 325 326 322 322 321 319 318 316 317 315 313 311 311 313 313 312 312 316 318 316 318 318 315 315 322
47 25 50 142 144 118 99 84 85 77 66 67 75 83 85 82 76 71 67 63 59 58 54 46 38 31 32 10 27 21 30 38 34 8 9 12 5 0 358 6 356 352 350 356 347 342 342 336 340 333 345 18 19 7 358 355 347 340 335 331 328 325 325 328 328 324 320 318 318 317 317 316 317 316 318 319 320 319 318 313 309 310 309 312 319 324 319
52 58 62 77 92 103 101 93 83 75 70 64 67 69 79 80 73 69 64 60 59 53 48 38 37 32 32 11 14 13 13 19 24 6 360 7 359 358 360 356 353 351 355 351 345 344 341 341 332 350 356 3 15 4 358 348 340 334 332 331 328 327 329 328 325 317 315 317 318 320 321 320 320 321 322 321 317 313 309 309 310 312 314 321 321 314 312
63 69 78 89 98 103 97 84 80 79 75 70 69 63 60 77 78 67 65 56 51 53 43 39 34 26 20 19 8 3 0 4 14 352 352 1 1 358 358 351 348 346 354 353 350 340 339 333 343 2 349 0 4 0 348 341 331 327 327 326 325 328 329 327 321 320 321 324 326 325 324 321 321 320 319 317 315 315 315 317 320 321 318 315 314 311 324
90 90 87 91 91 88 93 101 97 90 84 74 76 75 61 65 78 75 60 53 47 51 38 36 31 18 18 13 4 351 354 357 359 340 355 2 359 357 356 357 359 357 351 340 332 327 327 330 359 350 354 360 357 350 342 334 332 332 333 331 330 329 328 329 330 330 329 326 323 323 322 322 322 322 319 319 320 319 320 320 317 313 310 313 322 328 328
101 98 100 98 98 104 99 98 100 93 89 87 75 67 65 63 58 58 50 45 31 33 34 31 24 16 3 356 352 347 353 356 345 342 358 2 358 358 357 357 0 353 337 326 321 320 318 353 358 351 357 352 349 341 336 336 339 337 334 331 328 326 330 335 331 328 325 321 320 321 319 321 322 322 323 322 321 320 317 316 315 320 328 330 326 323 322
123 117 108 111 108 105 103 97 98 95 86 78 78 84 76 68 59 48 40 36 30 18 32 28 18 1 350 346 344 345 353 357 344 350 5 352 351 352 354 350 349 339 328 319 314 307 353 12 352 350 348 347 341 337 339 343 340 333 329 328 329 332 331 330 326 323 321 320 320 320 323 323 322 321 319 319 318 318 321 324 326 325 322 319 317 318 321
86 84 113 112 119 128 123 113 103 98 89 85 83 76 73 69 66 46 36 24 29 20 25 18 7 349 341 342 341 347 354 356 353 357 354 349 345 342 343 342 337 331 321 310 305 348 16 1 351 345 341 340 342 340 341 340 336 331 333 334 335 332 327 325 326 324 321 322 321 325 324 321 321 321 322 325 325 327 326 323 320 319 318 317 318 319 319
87 85 83 79 70 71 78 94 95 97 98 93 75 69 65 68 77 64 36 22 24 13 3 16 355 338 335 328 341 358 4 360 350 346 343 339 340 336 336 331 326 325 316 305 327 43 360 352 345 342 338 344 342 342 339 340 338 336 339 336 332 325 323 322 323 322 323 322 324 323 324 324 324 326 325 324 324 322 319 317 317 317 318 317 317 319 320
100 97 90 81 79 79 78 78 78 84 91 93 88 77 64 55 61 66 48 15 12 360 1 1 346 333 342 344 357 0 357 349 348 346 338 333 328 329 330 328 322 323 317 335 329 34 3 344 339 342 343 341 339 339 339 339 340 339 336 334 324 321 320 320 319 317 320 320 323 323 323 324 324 323 322 322 318 315 313 314 315 317 317 317 318 320 318
72 88 95 91 86 82 79 75 81 88 90 96 93 86 67 41 49 71 51 22 5 4 357 352 333 348 352 346 353 353 345 344 344 336 326 319 317 326 325 316 312 312 324 335 341 13 351 342 337 342 345 334 333 334 338 339 340 337 335 325 317 318 319 318 318 319 318 319 321 320 322 320 315 316 319 317 313 313 314 315 317 318 316 317 319 317 319
60 60 61 69 80 87 84 82 83 93 90 80 90 86 87 60 12 67 39 15 357 357 10 341 338 344 334 328 353 338 337 333 334 323 309 311 317 325 327 311 310 311 341 337 348 359 347 335 337 341 335 329 329 330 334 337 339 337 331 324 319 318 317 316 316 316 319 318 320 318 315 317 317 316 316 316 313 313 317 317 318 318 318 317 315 316 316
63 59 64 65 66 66 70 61 55 40 67 110 72 55 61 61 42 63 28 4 342 349 14 342 339 336 320 334 339 322 328 320 326 310 310 313 318 335 307 297 284 333 345 337 360 350 335 336 337 335 328 323 327 327 331 335 338 337 329 320 318 313 315 312 315 314 315 315 315 316 319 316 316 316 316 318 316 317 317 319 320 319 317 316 317 317 317
67 68 68 69 60 60 58 57 48 50 21 56 110 62 25 44 43 52 8 358 335 4 19 332 341 325 325 327 323 326 312 322 313 315 317 320 322 312 281 289 303 59 346 357 351 339 336 339 335 322 322 321 326 329 331 334 337 334 326 319 314 313 311 312 313 314 314 315 315 318 316 316 317 319 317 317 317 317 315 317 319 318 318 316 316 313 313
69 61 54 62 59 55 55 54 48 28 24 35 62 55 21 63 69 44 348 345 336 353 14 335 321 318 315 320 326 314 315 315 312 321 321 321 315 313 320 312 314 29 347 341 341 338 335 338 327 327 317 321 320 333 333 333 334 328 323 317 314 314 314 316 315 317 314 316 317 318 317 318 318 318 317 317 315 315 313 314 316 316 316 316 315 315 316
72 70 69 63 60 55 46 37 58 42 1 17 59 51 27 70 80 49 346 336 342 340 333 325 314 316 319 322 312 310 314 313 315 321 318 310 303 306 313 292 337 16 338 337 328 330 336 324 325 318 313 320 325 329 333 333 327 324 317 316 312 313 312 314 314 313 312 313 312 313 316 316 317 315 317 315 315 314 314 314 314 315 315 315 313 315 316
83 81 68 68 58 50 53 50 45 23 30 329 56 50 29 82 58 49 351 353 339 320 312 307 305 316 321 317 311 319 316 320 321 309 296 272 282 272 264 272 334 347 337 328 324 326 326 324 318 299 320 325 325 327 330 329 324 316 311 311 310 312 310 310 308 310 313 314 316 315 317 316 317 317 317 315 314 313 313 314 314 315 315 315 314 315 315
86 79 84 78 63 40 66 56 60 353 5 318 354 360 88 63 31 32 17 351 332 319 306 302 308 318 317 315 321 318 315 319 317 312 310 305 285 277 299 20 333 324 326 320 320 322 321 318 308 314 322 323 324 325 326 320 314 310 305 305 306 308 309 309 308 310 311 314 315 314 314 314 315 314 314 313 312 311 310 310 311 313 313 314 313 313 312
84 89 88 84 74 78 69 47 22 333 333 326 318 312 77 46 36 342 5 360 322 312 307 306 308 313 310 309 300 302 298 299 292 301 307 306 313 302 323 10 325 314 312 320 317 315 307 307 311 318 319 320 320 322 319 309 306 303 304 303 301 304 303 305 306 309 309 308 307 308 309 309 308 309 308 308 308 308 308 310 310 312 312 312 313 313 314
80 74 75 90 80 61 37 57 307 347 4 292 314 328 86 65 21 343 345 313 308 298 296 293 305 303 298 293 297 296 293 280 266 265 263 263 265 289 319 325 315 310 314 316 307 306 295 303 312 315 316 317 320 320 308 304 297 297 295 298 300 301 302 301 303 304 304 305 305 304 304 305 306 305 305 305 306 306 306 308 308 307 307 307 308 309 310
96 78 47 76 95 354 63 9 309 21 315 35 66 320 331 342 357 339 305 302 295 281 285 293 292 284 286 294 294 302 304 302 288 261 245 261 307 321 304 305 304 308 309 309 305 302 302 307 310 311 313 314 317 312 306 301 301 296 297 295 297 294 296 296 300 300 301 299 300 300 301 302 301 300 302 303 303 304 305 307 307 307 309 308 308 308 309
64 44 359 10 84 22 32 7 25 49 354 70 56 10 293 348 336 316 307 299 286 280 285 292 283 283 283 287 283 276 265 280 308 306 240 120 280 292 294 291 294 303 308 306 301 296 299 302 305 309 310 312 312 301 301 298 298 297 299 298 299 296 294 292 296 295 298 297 300 301 303 303 301 301 300 300 300 302 302 304 304 307 307 308 307 308 308
350 94 312 296 331 72 30 343 5 349 343 344 20 318 327 341 321 316 297 292 303 299 286 282 292 287 282 276 276 263 260 261 256 270 293 308 293 292 284 289 293 298 299 297 297 297 294 296 302 305 306 306 300 293 293 294 294 295 296 295 294 296 296 293 289 289 291 294 294 296 295 296 298 301 299 300 299 300 300 301 301 302 302 305 306 306 305
317 52 42 340 66 34 23 27 322 312 339 351 338 308 330 329 314 294 296 298 283 272 282 286 278 283 284 277 267 274 272 267 266 271 281 285 286 282 287 286 287 293 294 295 295 296 295 299 300 299 295 289 286 288 288 289 291 291 290 291 293 291 291 294 294 295 292 289 290 290 290 292 293 293 294 296 296 297 297 298 298 300 303 303 301 302 303
9 27 351 358 21 359 21 1 264 273 296 297 292 310 303 296 279 283 293 291 284 290 284 279 275 275 282 282 281 279 275 274 275 280 286 288 286 285 282 288 292 292 295 296 293 295 296 295 292 290 292 293 286 286 281 284 286 290 290 290 289 288 291 294 291 290 288 289 289 288 289 289 290 291 292 292 294 295 295 297 298 300 301 301 301 301 301
169 259 331 331 307 293 278 268 268 281 282 287 317 300 299 286 286 290 284 286 295 290 291 300 299 283 270 285 287 283 279 283 285 288 285 286 289 288 281 289 290 290 288 284 284 286 287 288 288 289 288 289 284 281 289 293 289 284 285 286 284 285 285 285 286 286 286 289 289 288 287 286 287 289 289 289 290 291 293 294 295 296 297 296 298 298 299